This is the latest recevied weather packets stored in our database for station/object KI4BIY. If no packets are shown the sender has not sent any weather packets the latest 10 day(s).
| Time | Temp. | Humidity | Pressure | Rain* | Wind** | Luminosity | Snow |
|---|---|---|---|---|---|---|---|
| 1778172194 | 19.44° C | 51% | 1016.9 hPa | 0 mm | - | 651 W/m² | - |
| 1778171891 | 19.44° C | 55% | 1017.2 hPa | 0 mm | - | 610 W/m² | - |
| 1778171589 | 18.89° C | 52% | 1017.3 hPa | 0 mm | - | 675 W/m² | - |
| 1778171285 | 18.33° C | 59% | 1017.2 hPa | 0 mm | - | 715 W/m² | - |
| 1778170981 | 18.33° C | 59% | 1017.3 hPa | 0 mm | - | 715 W/m² | - |
| 1778170678 | 18.33° C | 61% | 1017.1 hPa | 0 mm | - | 719 W/m² | - |
| 1778170374 | 18.89° C | 60% | 1017.1 hPa | 0 mm | - | 701 W/m² | - |
| 1778170070 | 18.89° C | 56% | 1017.3 hPa | 0 mm | - | 753 W/m² | - |
| 1778169767 | 18.33° C | 56% | 1017.2 hPa | 0 mm | - | 813 W/m² | - |
| 1778169463 | 18.33° C | 57% | 1017.1 hPa | 0 mm | - | 760 W/m² | - |
| 1778169159 | 17.78° C | 68% | 1017.1 hPa | 0 mm | - | 749 W/m² | - |
| 1778168856 | 17.78° C | 55% | 1017.1 hPa | 0 mm | - | 731 W/m² | - |
| 1778168554 | 18.33° C | 55% | 1017.2 hPa | 0 mm | - | 813 W/m² | - |
| 1778168250 | 18.33° C | 58% | 1017.1 hPa | 0 mm | - | 881 W/m² | - |
| 1778167946 | 17.78° C | 59% | 1017.2 hPa | 0 mm | - | 814 W/m² | - |
| 1778167643 | 18.33° C | 60% | 1017.5 hPa | 0 mm | - | 809 W/m² | - |
| 1778167339 | 17.78° C | 63% | 1017.3 hPa | 0 mm | - | 854 W/m² | - |
| 1778167035 | 17.78° C | 66% | 1017.4 hPa | 0 mm | - | 788 W/m² | - |
| 1778166732 | 17.22° C | 77% | 1017.4 hPa | 0 mm | - | 700 W/m² | - |
| 1778166429 | 17.78° C | 66% | 1017.2 hPa | 0 mm | - | 671 W/m² | - |
| 1778166126 | 17.22° C | 64% | 1017.4 hPa | 0 mm | - | 669 W/m² | - |
| 1778165821 | 17.22° C | 64% | 1017.4 hPa | 0 mm | - | 670 W/m² | - |
| 1778165518 | 16.67° C | 68% | 1017.2 hPa | 0 mm | - | 665 W/m² | - |
| 1778165215 | 16.67° C | 74% | 1017.5 hPa | 0 mm | - | 682 W/m² | - |
| 1778164913 | 16.67° C | 78% | 1017.6 hPa | 0 mm | - | 674 W/m² | - |
* Rain latest hour (hover to see other rain measurements)
** Current wind speed in m/s (hover to see current wind gust speed)